Regional Weather Roundup
Issued by NWS

Home | Current Version | Previous Version | Text Only | Print | Product List | Glossary On
Versions: 1 2 3 4 5 6 7 8 9 10 11 12 13 14 15 16 17 18 19 20 21 22 23 24 25 26 27 28 29 30 31 32 33 34 35 36 37 38 39 40 41 42 43 44 45 46 47 48 49 50
000
ASCA44 KEWX 241220
RWRMX

LATIN AMERICA AND CARIBBEAN REGIONAL WEATHER ROUNDUP
NATIONAL WEATHER SERVICE AUSTIN/SAN ANTONIO TX
700 AM CDT TUE APR 24 2018

NOTE: "FAIR" INDICATED FEW OR NO CLOUDS BELOW 12,000 FEET WITH NO
SIGNIFICANT WEATHER AND/OR OBSTRUCTIONS TO VISIBILITY.

BAJA CALIFORNIA

CITY           SKY/WX    TMP DP  RH WIND       PRES   REMARKS
S.J. DEL CABO  CLEAR     72  39  30 CALM      29.90
TIJUANA        FOG       54  54 100 CALM      30.02  VSB 1/16

NORTHWESTERN MEXICO

CITY           SKY/WX    TMP DP  RH WIND       PRES   REMARKS
CULIACAN       MOCLDY    66  52  59 CALM      29.86
HERMOSILLO     PTCLDY    72  34  25 E3        29.91R

NORTHEASTERN MEXICO

CITY           SKY/WX    TMP DP  RH WIND       PRES   REMARKS
MATAMOROS      PTCLDY    66  64  94 CALM      30.01
MONCLOVA         N/A    N/A N/A N/A MISG        N/A
MONTERREY      DRIZZLE   66  64  94 CALM      30.03R FOG
REYNOSA        MOCLDY    70  63  78 CALM      30.00R
SALTILLO       MOCLDY    55  50  82 CALM      30.21R FOG
CD. VICTORIA   CLOUDY    72  72 100 CALM      30.01

WESTERN MEXICO

CITY           SKY/WX    TMP DP  RH WIND       PRES   REMARKS
AGUASCALIENTES MOCLDY    59  50  72 N6        30.27R
COLIMA         PTCLDY    72  55  56 CALM      30.04
DEL BAJIO      PTCLDY    59  52  77 CALM      30.30R
GUADALAJARA    PTCLDY    61  43  51 CALM      30.18R
MAZATLAN       PTCLDY    61  57  88 CALM      29.90R
P. VALLARTA    MOCLDY    68  64  88 N5        29.88S
URUAPAN        PTCLDY    63  54  72 CALM        N/A
ZACATECAS      PTCLDY    48  37  66 S8        30.28  WCI  45

CENTRAL MEXICO

CITY           SKY/WX    TMP DP  RH WIND       PRES   REMARKS
CUERNAVACA       N/A    N/A N/A N/A MISG        N/A
MEXICO CITY    PTCLDY    59  50  72 E3        30.36R
MORELIA        PTCLDY    59  52  77 CALM      30.25R
POZA RICA      MOCLDY    73  72  94 E5        30.05  FOG
QUERETARO      MOCLDY    57  54  88 E6        30.32
S. LUIS POTOSI PTCLDY    59  52  77 CALM      30.25
TAMPICO        DRIZZLE   77  75  94 MISG      29.99  FOG
TOLUCA         MOCLDY    52  48  87 E6        30.42

SOUTHERN MEXICO

CITY           SKY/WX    TMP DP  RH WIND       PRES   REMARKS
ACAPULCO       MOCLDY    79  75  89 W5        29.88R
B. DE HUATULCO PTCLDY   N/A N/A N/A CALM      29.92
OAXACA         PTCLDY    61  52  72 CALM      30.26
P. ESCONDIDO   CLEAR     79  70  73 MISG      29.99R
VERACRUZ       MOCLDY    75  73  94 CALM      29.99R FOG
ZIHUATANEJO    MOCLDY    72  68  88 CALM      29.90

YUCATAN PENINSULA

CITY           SKY/WX    TMP DP  RH WIND       PRES   REMARKS
CAMPECHE       MOCLDY    75  73  94 E6        29.93R
CANCUN         PTCLDY    72  72 100 NW5       30.01R
CHETUMAL       MOCLDY    77  75  94 CALM      29.97R
CD. DEL CARMEN PTCLDY    79  72  78 E5        29.95R
COZUMEL        MOCLDY    70  70 100 CALM      29.99R
MERIDA         MOCLDY    77  73  88 E7        29.97R
MINATITLAN     MOCLDY    77  73  88 CALM      29.96R
TAPACHULA      PTCLDY    77  75  94 CALM      29.88R

CENTRAL AMERICA

CITY           SKY/WX    TMP DP  RH WIND       PRES   REMARKS
BELIZE CITY    PTCLDY    79  77  94 CALM      29.96R
MANAGUA        MOSUNNY   75  64  69 S5        29.86R

CARIBBEAN

CITY           SKY/WX    TMP DP  RH WIND       PRES   REMARKS
ARUBA          MOSUNNY   82  75  78 E17       29.92S
CURACAO        MOSUNNY   82  72  69 SE13      29.94S
KINGSTON       MOSUNNY   81  75  83 VRB2      29.94S
SAN JUAN       MOSUNNY   81  73  78 E15       30.06R
SANTO DOMINGO  MOSUNNY   77  73  88 NE5       30.00
ST. CROIX      MOSUNNY   82  70  65 E14       30.06
ST. KITTS      MOSUNNY   79  70  73 NE15      30.03S
ST. MAARTEN    MOSUNNY   81  68  65 E10       30.06R
ST. THOMAS     HVY RAIN  81  72  74 E14       30.05

$$




USA.gov is the U.S. government's official web portal to all federal, state and local government web resources and services.